SCP
0 0 0 0 0 0 0 0 0 0 0 0 0 0 0 0 0 0 0 0 0 0 0 0 0 0 0 0 0 0 0 0 0 0 0 0 0 0 0 0 0 0 -0 0 -0 -0 -0 0 0
0 0 0 0 0 0 0 0 0 0 0 0 0 0 0 0 0 0 0 0 0 0 0 0 0 0 0 0 0 0 0 0 0 0 0 0 0 0 0 0 0 0 0 0 0 0 0 0 0
0 0 0 0 0 0 0 0 0 0 0 0 0 0 0 0 0 0 0 -0 -0 0 0 0 0 0 0 0 0 0 0 0 0 0 0 0 0 0 0 0 0 0 0 0 0 0 0 0 0
0 0 0 0 -0 0 0 0 0 0 0 0 0 0 0 0 0 0 0 0 0 0 0 0 0 0 0 0 0 0 0 0 0 0 0 0 0 0 0 0 0 0 0 0 0 0 0 0 0
0 0 0 0 -0 0 0 0 0 0 0 0 0 0 0 0 0 0 0 0 0 0 0 0 0 0 0 0 0 0 0 0 0 0 0 0 0 0 0 0 0 0 0 0 0 0 0 0 0
0 0 0 0 0 0 0 0 0 0 0 0 0 0 0 0 0 0 0 0 0 0 0 0 0 0 0 0 0 0 0 0 0 0 0 0 0 0 0 0 0 0 0 0 0 0 0 0 0
0 0 0 0 0 0 0 0 0 0 0 0 0 0 0 0 0 0 0 0 0 0 0 0 0 0 0 0 0 0 0 0 0 0 0 0 0 0 0 0 0 0 0 0 0 0 0 0 0
0 0 0 0 0 0 0 0 0 0 0 0 0 0 0 0 0 0 0 0 0 0 0 -0 0 0 0 0 0 0 0 0 0 0 0 0 0 0 0 0 0 0 0 0 0 0 0 0 0
0 0 0 0 0 0 0 0 0 0 0 0 0 0 0 -0 0 0 0 0 0 0 0 0 0 0 0 0 0 0 0 0 0 0 0 0 0 0 0 0 0 0 0 0 0 0 0 0 0
0 0 0 0 0 0 0 0 0 0 0 0 0 0 0 0 0 0 0 0 0 0 0 0 0 0 0 0 0 0 0 0 0 0 0 0 0 0 0 0 0 0 0 0 0 0 0 0 0
0 0 0 0 0 0 0 0 0 0 0 0 0 0 0 0 0 0 0 0 0 0 0 0 0 0 0 0 0 0 0 0 0 0 0 0 0 0 0 0 0 0 0 0 0 0 0 0 0
0 0 0 0 0 0 0 0 0 0 0 0 0 0 0 0 0 0 0 0 0 0 0 0 0 0 0 0 0 0 0 0 0 0 0 0 0 0 0 0 0 0 0 0 0 0 0 0 0
0 0 0 0 0 0 0 0 0 0 0 0 0 0 0 0 0 0 0 0 0 0 0 0 0 0 0 0 0 0 0 0 0 0 0 0 0 0 0 0 0 0 0 0 0 0 0 0 0
0 0 0 0 0 0 0 0 0 0 0 0 0 0 0 0 0 0 0 0 0 0 0 0 0 0 0 0 0 0 0 0 0 0 0 0 0 0 0 0 0 0 0 0 0 0 0 0 0
0 0 0 0 0 0 0 0 0 0 0 0 -0 0 0 0 0 0 0 0 0 0 0 0 0 0 0 0 0 0 0 0 0 0 0 0 0 0 0 0 0 0 0 0 0 0 0 0 0
0 0 0 0 0 0 0 0 0 0 0 0 0 -0 -0 0 0 0 0 0 0 0 0 0 0 0 0 0 0 0 0 0 0 0 0 0 0 0 0 0 0 0 0 0 0 0 0 0 0
0 0 0 0 0 0 0 0 0 0 0 0 0 0 -0 -0 0 0 0 0 0 0 0 0 0 0 0 0 0 0 0 0 0 0 0 0 0 0 0 0 0 0 0 0 0 0 0 0 0
0 0 0 0 0 0 0 0 0 0 0 0 0 0 0 0 0 -0 0 0 0 0 0 0 0 0 0 0 0 0 0 0 0 0 0 0 0 0 0 0 0 0 0 0 0 0 0 0 0
-0 -0 -0 -0 -0 0 -0 -0 -0 0 0 0 0 0 0 0 -0 -0 -0 -0 0 0 0 0 0 0 0 0 0 0 0 0 0 0 0 0 0 0 0 0 0 0 0 0 0 0 0 0 0
-0 -0 0 -0 0 -0 0 -0 -0 -0 -0 -0 -0 -0 0 0 0 0 0 0 -0 0 0 0 0 0 0 0 0 0 0 0 0 0 0 0 0 0 0 0 0 0 0 0 0 0 0 0 0
-0 -0 -0 -0 -0 -0 -0 -0 -0 -0 -0 -0 0 -0 -0 -0 0 0 0 -0 0 -0 0 0 0 0 0 0 0 0 0 0 0 0 0 0 0 0 0 0 0 0 0 0 0 0 0 0 0
-0 0 -0 -0 -0 -0 -0 -0 -0 -0 -0 -0 -0 -0 -0 -0 0 0 0 0 -0 -0 -0 0 0 0 0 0 0 0 0 0 0 0 0 0 0 0 0 0 0 0 0 0 0 0 0 0 0
0 -0 -0 0 0 0 0 -0 0 0 -0 0 -0 -0 -0 -0 -0 0 0 0 0 -0 -0 -0 -0 -0 0 0 0 0 0 0 0 0 0 0 0 0 0 0 0 0 0 0 0 0 0 0 0
-0 -0 0 0 0 0 0 0 0 0 0 0 0 -0 -0 -0 0 0 0 0 0 0 0 0 0 0 0 0 0 0 0 0 0 0 0 0 0 0 0 0 0 0 0 0 0 0 0 0 0
0 -0 0 0 0 0 0 0 0 0 0 0 0 0 -0 -0 0 0 0 0 0 0 0 0 0 0 0 0 0 0 0 0 0 0 0 0 0 0 0 0 0 0 0 0 0 0 0 0 0
0 -0 0 0 0 0 0 0 0 0 0 0 0 0 0 0 0 0 0 0 0 0 0 0 0 -0 0 0 0 0 0 0 0 0 0 0 0 0 0 0 0 0 0 0 0 0 0 0 0
0 0 0 0 0 0 0 0 0 0 0 0 0 0 0 0 0 0 0 0 0 0 0 -0 -0 -0 -0 -0 0 0 0 0 0 0 0 0 0 0 0 0 0 0 0 0 0 0 0 0 0
0 0 0 0 0 0 0 0 0 0 0 0 0 0 0 0 0 0 0 0 0 -0 -0 -0 -0 -0 -0 -0 0 0 0 0 0 0 0 0 0 0 0 0 0 0 0 0 0 0 0 0 0
0 0 0 0 0 0 0 0 0 0 0 0 0 0 0 0 0 0 0 0 0 0 0 -0 -0 -0 -0 -0 0 0 0 0 0 0 0 0 0 0 0 0 0 0 0 0 0 0 0 0 0
0 0 0 0 0 0 0 0 0 0 0 0 0 0 0 0 0 0 0 0 0 0 0 0 -0 -0 -0 -0 -0 0 0 0 0 0 0 0 0 0 0 0 0 0 0 0 0 0 0 0 0
Wind_Speed_500mb
10 12 12 9 9 7 4 7 3 9 4 8 4 7 9 14 10 9 29 40 33 23 13 21 29 32 36 37 39 38 38 38 37 35 33 32 31 31 33 37 39 36 34 33 31 28 25 19 16
7 6 6 5 10 12 6 8 17 9 1 3 13 4 9 14 9 13 8 43 53 37 21 24 30 34 37 39 39 40 40 38 37 36 35 34 33 33 34 36 39 39 36 33 32 31 27 22 20
1 3 7 6 7 16 6 13 9 7 10 7 11 9 14 5 4 16 17 54 39 38 29 29 32 35 37 38 41 41 41 40 38 37 35 35 35 35 35 36 38 39 38 35 35 33 28 26 23
7 2 5 12 29 26 21 8 13 25 20 3 10 18 7 10 15 24 44 36 39 32 28 29 33 38 42 44 40 41 43 42 41 39 37 36 37 37 37 37 38 38 36 33 32 32 30 27 23
8 3 12 16 28 23 15 19 22 23 25 15 13 17 23 19 17 18 40 47 47 41 31 33 36 41 44 46 48 47 46 45 44 41 40 39 39 38 38 38 38 37 35 32 30 31 32 29 25
7 4 14 26 30 13 7 11 17 20 20 18 13 18 15 7 8 34 50 54 53 45 40 33 38 45 50 52 51 51 51 50 48 45 43 40 39 39 39 39 40 39 37 36 32 32 33 33 28
9 8 18 27 33 20 9 4 6 13 15 15 16 16 11 9 40 59 56 54 53 49 47 40 36 42 52 57 57 57 56 55 53 50 47 44 42 41 41 42 43 44 43 42 38 37 35 36 31
10 7 10 12 16 12 8 7 15 22 15 16 15 9 17 49 69 66 54 48 43 43 40 38 34 38 46 57 64 63 61 60 58 55 52 48 45 44 45 45 46 47 46 44 42 38 37 34 35
13 9 17 13 14 6 15 19 17 23 26 28 22 40 54 52 59 65 61 53 45 41 37 44 47 44 37 47 60 66 65 62 61 59 57 53 52 52 52 52 51 50 49 47 44 44 43 43 41
11 8 8 3 13 14 24 19 25 18 36 36 43 49 59 62 57 49 52 54 53 50 45 43 46 44 43 46 47 62 69 69 65 62 60 63 60 58 60 59 56 54 53 52 50 50 49 49 49
7 7 2 7 17 32 28 24 30 25 19 47 50 52 51 49 45 44 44 44 44 46 42 42 42 38 40 44 49 53 65 73 75 70 69 65 57 56 64 64 64 62 61 59 58 55 57 60 59
7 2 8 12 28 32 28 29 27 30 23 43 46 48 52 57 55 56 57 57 59 55 50 48 45 43 35 38 42 49 58 67 76 82 76 74 73 76 69 67 66 70 67 67 65 63 59 60 58
5 6 13 21 22 23 26 31 9 22 54 49 50 52 54 54 56 47 45 44 48 55 56 53 47 42 36 36 41 47 52 66 70 76 87 85 86 89 86 83 79 77 76 73 69 64 63 63 59
5 8 11 14 35 19 39 30 3 36 65 53 52 56 52 48 53 52 55 56 58 54 52 56 54 51 48 36 38 46 51 59 72 74 80 88 93 92 95 92 88 84 82 79 71 69 71 65 63
4 4 4 29 46 21 50 19 28 63 48 44 46 52 55 55 53 55 58 62 64 63 60 62 63 53 46 45 39 39 50 61 66 76 77 83 89 95 95 97 94 93 88 84 74 73 77 72 65
6 6 4 20 35 20 34 5 51 57 56 58 54 49 48 52 52 54 59 62 64 65 66 64 66 66 60 53 49 47 42 54 66 69 75 81 87 90 94 100 96 95 95 92 87 80 76 71 67
18 5 11 11 26 30 20 12 33 39 46 51 54 53 52 53 55 60 60 63 66 66 63 63 62 65 67 58 56 54 54 50 58 67 75 81 87 88 92 97 100 97 97 99 92 89 83 78 73
6 5 6 12 16 27 15 11 20 35 41 43 50 59 59 60 60 59 62 63 63 66 65 59 57 58 62 61 56 57 55 44 51 62 75 78 83 88 91 95 95 100 100 101 97 96 90 84 77
1 5 14 8 3 23 7 1 2 20 35 44 47 51 61 62 55 57 62 60 68 64 66 68 64 57 58 59 59 55 53 53 52 53 63 73 83 87 90 93 94 100 109 97 99 93 96 92 83
1 7 15 10 7 14 8 12 7 1 19 28 36 43 49 62 69 67 69 69 66 68 70 66 67 64 56 55 59 61 61 59 61 59 58 68 82 87 93 94 98 98 104 95 100 102 102 99 92
6 12 15 10 22 3 21 6 17 8 6 30 39 40 41 45 57 66 69 71 71 71 73 71 68 67 63 57 57 59 61 58 62 63 66 66 76 88 90 96 100 101 99 105 102 111 104 106 99
5 15 20 15 12 5 13 5 15 9 10 25 40 43 44 50 52 54 61 65 69 73 69 70 66 63 65 61 57 55 61 68 62 60 71 68 69 84 91 88 100 102 100 104 107 104 105 103 112
7 29 13 7 5 7 2 7 7 7 9 22 34 38 42 41 46 52 55 56 57 67 70 71 69 64 60 63 59 56 56 60 70 70 64 82 66 83 88 88 97 98 100 111 98 102 95 113 115
25 4 6 5 3 6 8 7 8 6 4 12 26 35 40 42 42 44 48 52 55 62 75 77 75 69 64 61 60 57 55 57 61 65 66 72 82 75 94 88 95 95 95 97 107 110 80 101 114
17 2 1 4 4 5 10 12 15 13 11 6 17 27 35 38 41 45 49 53 55 60 66 77 79 75 69 62 56 59 57 53 53 55 57 59 83 67 89 87 96 96 98 97 94 104 97 104 115
11 9 5 8 6 9 6 13 6 15 14 5 10 16 26 35 37 41 43 45 49 54 58 66 77 79 75 69 63 57 58 56 50 49 48 47 62 56 93 95 92 91 86 96 99 94 94 99 106
3 5 4 4 3 5 7 10 20 18 17 11 9 20 24 31 34 37 39 42 49 54 57 58 67 73 77 71 69 66 61 58 52 46 43 40 42 70 56 77 86 89 82 98 87 91 93 91 100
4 12 2 3 4 11 9 15 17 23 25 14 11 14 19 24 31 32 35 41 47 51 55 57 60 66 73 76 72 70 70 62 55 48 45 37 30 47 43 68 78 78 68 77 86 83 85 86 91
8 5 3 2 3 6 10 12 11 19 21 16 11 13 17 21 26 35 38 39 42 45 50 54 58 61 65 72 75 73 72 71 64 57 50 42 28 26 26 37 56 69 66 75 75 74 82 79 84
0 7 10 6 8 8 7 20 7 15 19 21 18 26 22 24 29 35 36 39 42 44 46 49 52 57 61 63 67 71 72 70 72 69 63 49 38 23 16 15 32 40 45 46 53 63 67 69 74
Wind_Direction_500mb
309 319 321 316 251 243 204 168 232 206 216 172 10 308 352 306 294 355 352 11 346 331 259 217 208 208 206 204 204 206 209 212 214 216 215 212 208 203 198 197 200 200 201 202 202 203 215 224 230
284 312 316 288 261 249 214 211 234 250 41 245 303 180 286 316 275 316 346 344 343 335 290 234 218 214 213 211 211 210 212 215 216 217 216 214 212 208 205 203 203 207 208 209 214 217 221 225 209
35 176 264 261 244 245 259 211 282 354 357 314 306 288 305 290 293 344 319 332 336 332 316 256 231 226 223 218 216 216 217 218 217 217 217 218 218 216 214 211 209 210 214 221 221 219 213 201 198
113 221 239 244 250 252 270 309 306 305 318 346 326 286 272 301 2 343 331 343 343 325 308 292 252 233 232 229 227 222 221 220 220 220 221 222 222 220 218 215 212 210 213 212 206 199 195 198 200
129 219 249 249 262 267 293 294 295 302 305 323 326 299 289 310 341 9 10 4 1 347 312 281 256 243 237 236 232 229 227 224 223 224 224 224 222 218 216 212 208 200 197 196 199 197 200 205 205
161 242 242 257 269 256 302 308 300 298 317 342 308 299 292 307 354 353 344 341 339 343 343 310 278 254 244 240 237 234 233 231 229 227 227 226 224 221 216 210 204 198 197 202 211 210 211 213 209
188 203 265 276 281 291 328 6 333 348 344 11 327 287 308 360 344 333 330 329 327 326 324 326 310 276 258 246 242 238 236 235 235 232 230 228 225 222 217 213 208 206 205 210 217 222 225 221 214
165 218 259 257 289 313 53 66 22 7 3 348 354 288 308 327 322 323 324 326 331 333 333 337 328 303 277 258 249 244 240 239 236 236 235 233 230 226 221 217 215 214 215 218 220 221 225 222 217
144 205 254 269 295 18 23 354 354 327 302 313 299 302 314 326 331 326 322 321 333 334 332 318 311 309 309 284 261 251 247 243 242 239 237 235 231 227 223 221 220 219 220 221 223 227 228 225 223
191 217 239 336 329 338 335 354 332 334 317 321 324 320 320 323 332 334 330 326 327 327 320 321 311 301 296 286 279 263 251 242 240 239 235 232 231 229 227 225 224 223 223 224 226 230 232 228 233
165 245 360 68 8 339 327 339 335 336 341 348 348 344 346 347 350 352 347 340 338 336 334 334 329 310 287 280 277 267 258 248 240 237 236 234 228 228 229 227 224 222 223 225 228 229 234 238 235
205 124 30 346 349 356 342 328 334 36 17 346 339 338 340 339 337 337 334 334 333 335 334 331 332 328 306 277 267 263 261 255 246 241 235 233 232 232 230 227 225 224 225 224 228 232 233 233 231
244 17 346 349 18 21 347 328 321 58 356 348 348 354 354 349 344 341 333 326 325 323 323 321 324 323 318 294 268 262 257 256 254 245 244 237 237 237 236 234 232 229 229 228 231 231 227 228 236
326 308 15 35 7 44 355 321 205 354 346 353 4 3 2 358 352 343 337 336 332 327 321 316 315 314 313 305 281 261 260 255 253 253 248 243 239 237 239 237 236 233 234 232 231 235 228 233 242
343 260 160 30 358 25 338 135 25 348 359 17 17 8 6 1 354 353 346 339 334 328 322 318 314 310 306 302 287 271 258 256 252 250 251 250 244 238 238 239 236 237 235 234 228 236 233 236 242
52 124 6 35 19 1 350 64 9 11 19 22 21 19 13 6 0 354 348 341 334 327 325 319 312 308 304 298 290 273 260 252 251 250 249 250 249 244 241 239 240 234 234 233 228 229 236 241 244
34 20 360 337 28 349 15 27 10 20 28 22 16 16 13 8 3 0 355 348 341 335 328 322 319 311 307 300 290 284 268 255 251 249 246 247 247 249 244 244 241 233 235 233 231 227 233 239 242
18 7 320 306 356 1 39 68 33 21 29 29 15 6 5 6 1 356 354 354 348 339 332 325 322 318 312 308 298 284 277 270 258 249 248 246 247 246 245 245 244 235 243 236 233 231 231 235 240
54 316 320 343 109 334 17 96 81 30 28 20 16 7 359 360 357 356 357 355 354 351 339 332 326 321 319 315 311 297 282 262 248 254 252 246 246 247 245 245 245 236 240 242 234 233 235 233 233
66 340 15 294 314 329 332 300 188 138 42 28 15 8 1 353 354 355 356 357 357 353 351 342 332 327 323 318 314 311 300 282 266 247 243 252 246 247 245 243 242 243 243 241 234 231 235 228 230
51 19 347 311 314 301 307 211 218 213 305 7 13 7 1 358 350 350 353 355 356 355 353 351 343 332 326 319 314 310 304 295 284 260 253 255 247 247 246 244 243 244 244 245 238 232 235 234 229
19 2 323 314 322 4 350 302 227 247 312 356 1 3 358 353 350 348 350 352 354 355 352 351 353 341 331 326 319 315 310 306 297 283 248 247 249 247 245 242 244 243 242 247 245 237 237 232 233
328 331 305 297 253 296 49 273 158 232 270 350 355 354 353 351 348 347 347 348 350 353 353 353 353 352 341 332 329 322 315 307 300 294 278 244 246 250 243 246 242 241 242 243 241 235 234 235 238
317 323 154 177 217 242 131 3 238 219 225 334 346 353 353 351 350 349 347 349 350 354 356 357 356 354 352 343 338 331 323 317 311 303 290 260 242 252 246 245 240 245 246 242 242 237 233 238 234
352 214 220 244 253 308 155 292 279 183 175 336 336 338 348 350 350 351 351 351 351 353 356 358 359 358 356 353 345 339 330 324 319 310 300 284 243 259 243 244 237 241 245 244 245 240 238 235 234
11 359 26 293 292 309 268 231 309 180 185 282 306 319 340 350 350 350 351 350 350 353 356 359 360 1 1 358 355 349 342 334 329 322 307 291 262 265 250 248 246 246 246 247 241 245 242 243 239
43 60 38 97 64 282 256 265 259 199 222 247 305 340 336 342 346 345 348 352 354 355 359 359 2 3 3 1 2 360 353 344 339 335 325 304 264 244 238 247 250 245 244 242 247 243 243 246 241
7 142 167 86 299 280 248 279 265 214 229 247 297 309 322 329 337 337 343 348 355 357 359 1 5 7 6 5 8 6 5 357 349 351 343 327 280 256 232 232 247 237 243 247 244 243 244 243 244
155 174 116 40 248 276 299 264 220 230 206 225 278 290 305 314 322 328 333 339 343 349 353 359 1 4 7 6 8 9 9 9 2 359 359 352 334 290 267 232 230 233 242 242 239 241 241 242 245
272 203 194 221 193 237 278 269 248 226 220 227 264 303 301 304 309 315 320 328 334 338 345 351 357 2 5 5 7 7 10 12 13 8 6 4 358 356 316 257 232 220 223 232 239 240 242 242 241
Wind_Speed_850mb
10 12 12 9 9 7 4 7 3 9 4 8 4 7 9 14 10 9 29 40 33 23 13 21 29 32 36 37 39 38 38 38 37 35 33 32 31 31 33 37 39 36 34 33 31 28 25 19 16
7 6 6 5 10 12 6 8 17 9 1 3 13 4 9 14 9 13 8 43 53 37 21 24 30 34 37 39 39 40 40 38 37 36 35 34 33 33 34 36 39 39 36 33 32 31 27 22 20
1 3 7 6 7 16 6 13 9 7 10 7 11 9 14 5 4 16 17 54 39 38 29 29 32 35 37 38 41 41 41 40 38 37 35 35 35 35 35 36 38 39 38 35 35 33 28 26 23
7 2 5 12 29 26 21 8 13 25 20 3 10 18 7 10 15 24 44 36 39 32 28 29 33 38 42 44 40 41 43 42 41 39 37 36 37 37 37 37 38 38 36 33 32 32 30 27 23
8 3 12 16 28 23 15 19 22 23 25 15 13 17 23 19 17 18 40 47 47 41 31 33 36 41 44 46 48 47 46 45 44 41 40 39 39 38 38 38 38 37 35 32 30 31 32 29 25
7 4 14 26 30 13 7 11 17 20 20 18 13 18 15 7 8 34 50 54 53 45 40 33 38 45 50 52 51 51 51 50 48 45 43 40 39 39 39 39 40 39 37 36 32 32 33 33 28
9 8 18 27 33 20 9 4 6 13 15 15 16 16 11 9 40 59 56 54 53 49 47 40 36 42 52 57 57 57 56 55 53 50 47 44 42 41 41 42 43 44 43 42 38 37 35 36 31
10 7 10 12 16 12 8 7 15 22 15 16 15 9 17 49 69 66 54 48 43 43 40 38 34 38 46 57 64 63 61 60 58 55 52 48 45 44 45 45 46 47 46 44 42 38 37 34 35
13 9 17 13 14 6 15 19 17 23 26 28 22 40 54 52 59 65 61 53 45 41 37 44 47 44 37 47 60 66 65 62 61 59 57 53 52 52 52 52 51 50 49 47 44 44 43 43 41
11 8 8 3 13 14 24 19 25 18 36 36 43 49 59 62 57 49 52 54 53 50 45 43 46 44 43 46 47 62 69 69 65 62 60 63 60 58 60 59 56 54 53 52 50 50 49 49 49
7 7 2 7 17 32 28 24 30 25 19 47 50 52 51 49 45 44 44 44 44 46 42 42 42 38 40 44 49 53 65 73 75 70 69 65 57 56 64 64 64 62 61 59 58 55 57 60 59
7 2 8 12 28 32 28 29 27 30 23 43 46 48 52 57 55 56 57 57 59 55 50 48 45 43 35 38 42 49 58 67 76 82 76 74 73 76 69 67 66 70 67 67 65 63 59 60 58
5 6 13 21 22 23 26 31 9 22 54 49 50 52 54 54 56 47 45 44 48 55 56 53 47 42 36 36 41 47 52 66 70 76 87 85 86 89 86 83 79 77 76 73 69 64 63 63 59
5 8 11 14 35 19 39 30 3 36 65 53 52 56 52 48 53 52 55 56 58 54 52 56 54 51 48 36 38 46 51 59 72 74 80 88 93 92 95 92 88 84 82 79 71 69 71 65 63
4 4 4 29 46 21 50 19 28 63 48 44 46 52 55 55 53 55 58 62 64 63 60 62 63 53 46 45 39 39 50 61 66 76 77 83 89 95 95 97 94 93 88 84 74 73 77 72 65
6 6 4 20 35 20 34 5 51 57 56 58 54 49 48 52 52 54 59 62 64 65 66 64 66 66 60 53 49 47 42 54 66 69 75 81 87 90 94 100 96 95 95 92 87 80 76 71 67
18 5 11 11 26 30 20 12 33 39 46 51 54 53 52 53 55 60 60 63 66 66 63 63 62 65 67 58 56 54 54 50 58 67 75 81 87 88 92 97 100 97 97 99 92 89 83 78 73
6 5 6 12 16 27 15 11 20 35 41 43 50 59 59 60 60 59 62 63 63 66 65 59 57 58 62 61 56 57 55 44 51 62 75 78 83 88 91 95 95 100 100 101 97 96 90 84 77
1 5 14 8 3 23 7 1 2 20 35 44 47 51 61 62 55 57 62 60 68 64 66 68 64 57 58 59 59 55 53 53 52 53 63 73 83 87 90 93 94 100 109 97 99 93 96 92 83
1 7 15 10 7 14 8 12 7 1 19 28 36 43 49 62 69 67 69 69 66 68 70 66 67 64 56 55 59 61 61 59 61 59 58 68 82 87 93 94 98 98 104 95 100 102 102 99 92
6 12 15 10 22 3 21 6 17 8 6 30 39 40 41 45 57 66 69 71 71 71 73 71 68 67 63 57 57 59 61 58 62 63 66 66 76 88 90 96 100 101 99 105 102 111 104 106 99
5 15 20 15 12 5 13 5 15 9 10 25 40 43 44 50 52 54 61 65 69 73 69 70 66 63 65 61 57 55 61 68 62 60 71 68 69 84 91 88 100 102 100 104 107 104 105 103 112
7 29 13 7 5 7 2 7 7 7 9 22 34 38 42 41 46 52 55 56 57 67 70 71 69 64 60 63 59 56 56 60 70 70 64 82 66 83 88 88 97 98 100 111 98 102 95 113 115
25 4 6 5 3 6 8 7 8 6 4 12 26 35 40 42 42 44 48 52 55 62 75 77 75 69 64 61 60 57 55 57 61 65 66 72 82 75 94 88 95 95 95 97 107 110 80 101 114
17 2 1 4 4 5 10 12 15 13 11 6 17 27 35 38 41 45 49 53 55 60 66 77 79 75 69 62 56 59 57 53 53 55 57 59 83 67 89 87 96 96 98 97 94 104 97 104 115
11 9 5 8 6 9 6 13 6 15 14 5 10 16 26 35 37 41 43 45 49 54 58 66 77 79 75 69 63 57 58 56 50 49 48 47 62 56 93 95 92 91 86 96 99 94 94 99 106
3 5 4 4 3 5 7 10 20 18 17 11 9 20 24 31 34 37 39 42 49 54 57 58 67 73 77 71 69 66 61 58 52 46 43 40 42 70 56 77 86 89 82 98 87 91 93 91 100
4 12 2 3 4 11 9 15 17 23 25 14 11 14 19 24 31 32 35 41 47 51 55 57 60 66 73 76 72 70 70 62 55 48 45 37 30 47 43 68 78 78 68 77 86 83 85 86 91
8 5 3 2 3 6 10 12 11 19 21 16 11 13 17 21 26 35 38 39 42 45 50 54 58 61 65 72 75 73 72 71 64 57 50 42 28 26 26 37 56 69 66 75 75 74 82 79 84
0 7 10 6 8 8 7 20 7 15 19 21 18 26 22 24 29 35 36 39 42 44 46 49 52 57 61 63 67 71 72 70 72 69 63 49 38 23 16 15 32 40 45 46 53 63 67 69 74
Wind_Direction_850mb
309 319 321 316 251 243 204 168 232 206 216 172 10 308 352 306 294 355 352 11 346 331 259 217 208 208 206 204 204 206 209 212 214 216 215 212 208 203 198 197 200 200 201 202 202 203 215 224 230
284 312 316 288 261 249 214 211 234 250 41 245 303 180 286 316 275 316 346 344 343 335 290 234 218 214 213 211 211 210 212 215 216 217 216 214 212 208 205 203 203 207 208 209 214 217 221 225 209
35 176 264 261 244 245 259 211 282 354 357 314 306 288 305 290 293 344 319 332 336 332 316 256 231 226 223 218 216 216 217 218 217 217 217 218 218 216 214 211 209 210 214 221 221 219 213 201 198
113 221 239 244 250 252 270 309 306 305 318 346 326 286 272 301 2 343 331 343 343 325 308 292 252 233 232 229 227 222 221 220 220 220 221 222 222 220 218 215 212 210 213 212 206 199 195 198 200
129 219 249 249 262 267 293 294 295 302 305 323 326 299 289 310 341 9 10 4 1 347 312 281 256 243 237 236 232 229 227 224 223 224 224 224 222 218 216 212 208 200 197 196 199 197 200 205 205
161 242 242 257 269 256 302 308 300 298 317 342 308 299 292 307 354 353 344 341 339 343 343 310 278 254 244 240 237 234 233 231 229 227 227 226 224 221 216 210 204 198 197 202 211 210 211 213 209
188 203 265 276 281 291 328 6 333 348 344 11 327 287 308 360 344 333 330 329 327 326 324 326 310 276 258 246 242 238 236 235 235 232 230 228 225 222 217 213 208 206 205 210 217 222 225 221 214
165 218 259 257 289 313 53 66 22 7 3 348 354 288 308 327 322 323 324 326 331 333 333 337 328 303 277 258 249 244 240 239 236 236 235 233 230 226 221 217 215 214 215 218 220 221 225 222 217
144 205 254 269 295 18 23 354 354 327 302 313 299 302 314 326 331 326 322 321 333 334 332 318 311 309 309 284 261 251 247 243 242 239 237 235 231 227 223 221 220 219 220 221 223 227 228 225 223
191 217 239 336 329 338 335 354 332 334 317 321 324 320 320 323 332 334 330 326 327 327 320 321 311 301 296 286 279 263 251 242 240 239 235 232 231 229 227 225 224 223 223 224 226 230 232 228 233
165 245 360 68 8 339 327 339 335 336 341 348 348 344 346 347 350 352 347 340 338 336 334 334 329 310 287 280 277 267 258 248 240 237 236 234 228 228 229 227 224 222 223 225 228 229 234 238 235
205 124 30 346 349 356 342 328 334 36 17 346 339 338 340 339 337 337 334 334 333 335 334 331 332 328 306 277 267 263 261 255 246 241 235 233 232 232 230 227 225 224 225 224 228 232 233 233 231
244 17 346 349 18 21 347 328 321 58 356 348 348 354 354 349 344 341 333 326 325 323 323 321 324 323 318 294 268 262 257 256 254 245 244 237 237 237 236 234 232 229 229 228 231 231 227 228 236
326 308 15 35 7 44 355 321 205 354 346 353 4 3 2 358 352 343 337 336 332 327 321 316 315 314 313 305 281 261 260 255 253 253 248 243 239 237 239 237 236 233 234 232 231 235 228 233 242
343 260 160 30 358 25 338 135 25 348 359 17 17 8 6 1 354 353 346 339 334 328 322 318 314 310 306 302 287 271 258 256 252 250 251 250 244 238 238 239 236 237 235 234 228 236 233 236 242
52 124 6 35 19 1 350 64 9 11 19 22 21 19 13 6 0 354 348 341 334 327 325 319 312 308 304 298 290 273 260 252 251 250 249 250 249 244 241 239 240 234 234 233 228 229 236 241 244
34 20 360 337 28 349 15 27 10 20 28 22 16 16 13 8 3 0 355 348 341 335 328 322 319 311 307 300 290 284 268 255 251 249 246 247 247 249 244 244 241 233 235 233 231 227 233 239 242
18 7 320 306 356 1 39 68 33 21 29 29 15 6 5 6 1 356 354 354 348 339 332 325 322 318 312 308 298 284 277 270 258 249 248 246 247 246 245 245 244 235 243 236 233 231 231 235 240
54 316 320 343 109 334 17 96 81 30 28 20 16 7 359 360 357 356 357 355 354 351 339 332 326 321 319 315 311 297 282 262 248 254 252 246 246 247 245 245 245 236 240 242 234 233 235 233 233
66 340 15 294 314 329 332 300 188 138 42 28 15 8 1 353 354 355 356 357 357 353 351 342 332 327 323 318 314 311 300 282 266 247 243 252 246 247 245 243 242 243 243 241 234 231 235 228 230
51 19 347 311 314 301 307 211 218 213 305 7 13 7 1 358 350 350 353 355 356 355 353 351 343 332 326 319 314 310 304 295 284 260 253 255 247 247 246 244 243 244 244 245 238 232 235 234 229
19 2 323 314 322 4 350 302 227 247 312 356 1 3 358 353 350 348 350 352 354 355 352 351 353 341 331 326 319 315 310 306 297 283 248 247 249 247 245 242 244 243 242 247 245 237 237 232 233
328 331 305 297 253 296 49 273 158 232 270 350 355 354 353 351 348 347 347 348 350 353 353 353 353 352 341 332 329 322 315 307 300 294 278 244 246 250 243 246 242 241 242 243 241 235 234 235 238
317 323 154 177 217 242 131 3 238 219 225 334 346 353 353 351 350 349 347 349 350 354 356 357 356 354 352 343 338 331 323 317 311 303 290 260 242 252 246 245 240 245 246 242 242 237 233 238 234
352 214 220 244 253 308 155 292 279 183 175 336 336 338 348 350 350 351 351 351 351 353 356 358 359 358 356 353 345 339 330 324 319 310 300 284 243 259 243 244 237 241 245 244 245 240 238 235 234
11 359 26 293 292 309 268 231 309 180 185 282 306 319 340 350 350 350 351 350 350 353 356 359 360 1 1 358 355 349 342 334 329 322 307 291 262 265 250 248 246 246 246 247 241 245 242 243 239
43 60 38 97 64 282 256 265 259 199 222 247 305 340 336 342 346 345 348 352 354 355 359 359 2 3 3 1 2 360 353 344 339 335 325 304 264 244 238 247 250 245 244 242 247 243 243 246 241
7 142 167 86 299 280 248 279 265 214 229 247 297 309 322 329 337 337 343 348 355 357 359 1 5 7 6 5 8 6 5 357 349 351 343 327 280 256 232 232 247 237 243 247 244 243 244 243 244
155 174 116 40 248 276 299 264 220 230 206 225 278 290 305 314 322 328 333 339 343 349 353 359 1 4 7 6 8 9 9 9 2 359 359 352 334 290 267 232 230 233 242 242 239 241 241 242 245
272 203 194 221 193 237 278 269 248 226 220 227 264 303 301 304 309 315 320 328 334 338 345 351 357 2 5 5 7 7 10 12 13 8 6 4 358 356 316 257 232 220 223 232 239 240 242 242 241